Location: Unspecified
(51.0950°N, 12.9690°E)
Time: 22:55:44
(UTC+00:00)

ATLAS 3B R/B - Pass Details

Date: 28 October 2021
Orbit: 989 x 1206 km, 63.8° (Epoch: 25 November)

Event Time Altitude Azimuth Distance (km) Brightness Sun altitude
Rises 18:16:17 0° 290° (WNW) 3,806 6.9 -23.6°
Reaches altitude 10° 18:19:17 10° 302° (WNW) 2,886 5.9 -24.0°
Maximum altitude 18:25:07 29° 0° (N) 1,900 4.0 -24.9°
Enters shadow 18:28:00 22° 37° (NE) 2,217 4.1 -25.4°
